Flag for Tunisia Weather past 2 weeks in Tunis, Tunisia

Now
77 °F

Passing clouds.


Feels Like: 79 °F
Forecast: 58 / 73 °F
Wind: 13 mph from Southeast

Location: Tunis-Carthage

Current Time: Apr 26, 2015 at 1:25:07 PM

Latest Report: Apr 26, 2015 at 1:00 PM


Visibility: N/A

Pressure: 29.89 "Hg

Humidity: 51%

Dew point: 57 °F

Location of TunisLocation

Historic Weather in Tunis — Graph

°F

Tunis temperature yesterday

Maximum temperature yesterday: 75 °F (at 1:00 PM)
Minimum temperature yesterday: 55 °F (at 1:00 AM)
Average temperature yesterday: 64 °F

Past Weeks' High & Low Weather Summary

 TemperatureHumidityPressure
High82 °F (Apr 23, 12:30 PM)100% (Apr 12, 4:30 AM)30.39 "Hg (Apr 12, 4:30 AM)
Low46 °F (Apr 15, 5:00 AM)22% (Apr 17, 1:30 AM)29.86 "Hg (Apr 18, 7:00 PM)
Average65 °F67%30.13 "Hg
* Reported Apr 11 12:30 PM — Apr 26 12:00 Noon, Tunis, Weather by CustomWeather, © 2015

Note: Actual official high and low records may vary slightly from our data, if they occured in-between our weather recording intervals... More about our weather records

Advertising

Tunis weather history for previous 24 hours

 ConditionsComfort  
Time TempWeatherWind HumidityBarometerVisibility
12:00 PM
Sun, Apr 26
77 °FPassing clouds.12 mph51%29.92 "HgN/A
11:30 AM73 °FPassing clouds.10 mph53%29.92 "HgN/A
11:00 AM73 °FPassing clouds.12 mph57%29.92 "HgN/A
10:30 AM72 °FPassing clouds.9 mph57%29.95 "HgN/A
10:00 AM70 °FPassing clouds.8 mph60%29.95 "HgN/A
9:30 AM70 °FPassing clouds.7 mph60%29.95 "HgN/A
9:00 AM68 °FPassing clouds.5 mph64%29.95 "HgN/A
8:30 AM66 °FPassing clouds.7 mph68%29.95 "Hg5 mi
8:00 AM66 °FPassing clouds.3 mph68%29.95 "Hg5 mi
7:30 AM64 °FPassing clouds.6 mph73%29.95 "Hg5 mi
7:00 AM64 °FPassing clouds.3 mph73%29.95 "Hg5 mi
6:30 AM64 °FScattered clouds.6 mph73%29.95 "Hg5 mi
6:00 AM63 °FScattered clouds.3 mph73%29.95 "Hg5 mi
5:30 AM63 °FPassing clouds.2 mph73%29.95 "Hg5 mi
4:30 AM63 °FPassing clouds.2 mph77%29.95 "Hg5 mi
3:30 AM61 °FPassing clouds.7 mph77%29.95 "Hg5 mi
3:00 AM61 °FPassing clouds.6 mph77%29.98 "Hg5 mi
2:00 AM63 °FPassing clouds.6 mph68%29.98 "Hg5 mi
1:00 AM63 °FPassing clouds.7 mph77%29.98 "Hg5 mi
12:30 AM63 °FPassing clouds.5 mph73%30.01 "Hg5 mi
12:00 AM63 °FPassing clouds.5 mph73%30.01 "Hg5 mi
11:00 PM
Sat, Apr 25
63 °FPassing clouds.5 mph73%30.01 "Hg5 mi
10:00 PM64 °FPassing clouds.7 mph78%30.04 "Hg5 mi
8:30 PM66 °FPassing clouds.8 mph68%30.01 "Hg5 mi
8:00 PM66 °FPassing clouds.7 mph73%30.01 "Hg5 mi
7:30 PM64 °FPassing clouds.6 mph78%30.01 "Hg5 mi
7:00 PM64 °FPassing clouds.7 mph78%29.98 "HgN/A
6:30 PM66 °FPassing clouds.10 mph73%29.98 "HgN/A
6:00 PM68 °FPassing clouds.10 mph64%29.98 "HgN/A
5:00 PM70 °FPassing clouds.10 mph60%29.98 "HgN/A
4:30 PM72 °FPassing clouds.12 mph57%29.98 "HgN/A
4:00 PM72 °FPassing clouds.10 mph65%29.98 "HgN/A
3:30 PM73 °FPassing clouds.12 mph57%29.98 "HgN/A
3:00 PM73 °FPassing clouds.10 mph57%29.98 "HgN/A
2:30 PM75 °FPassing clouds.9 mph50%29.98 "HgN/A
2:00 PM75 °FPassing clouds.8 mph47%30.01 "HgN/A
1:00 PM75 °FPassing clouds.7 mph47%30.01 "HgN/A
Weather by CustomWeather, © 2015

See weather overviewHow to use our weather pages